Location: Grand Rapids
(42.9630°N, 85.6680°W)
Time: 03:16:05
(UTC-04:00)

A-11 Canister half - Pass Details

Date: 02 June 2024
Orbit: 1524 x 1684 km, 47.3° (Epoch: 21 June)

Event Time Altitude Azimuth Distance (km) Brightness Sun altitude
Rises 20:41:20 0° 248° (WSW) 4,667 12.2 4.7°
Reaches altitude 10° 20:44:21 10° 249° (WSW) 3,686 11.7 4.3°
Maximum altitude 20:53:41 86° 339° (NNW) 1,546 9.2 2.7°
Drops below altitude 10° 21:03:13 10° 69° (ENE) 3,765 10.7 1.2°
Sets 21:06:20 0° 70° (ENE) 4,771 11.2 0.7°
